Regional Weather Roundup
Issued by NWS Upton, NY

Current Version | Previous Version | Text Only | Print | Product List | Glossary On
Versions: 1 2 3 4 5 6 7 8 9 10 11 12 13 14 15 16 17 18 19 20 21 22 23 24 25 26 27 28 29 30 31 32 33 34 35 36 37 38 39 40 41 42 43 44 45 46 47 48 49 50
000 ASUS41 KOKX 312105 RWROKX REGIONAL WEATHER ROUNDUP NATIONAL WEATHER SERVICE NEW YORK NY 400 PM EST SAT JAN 31 2015 NOTE: "FAIR" INDICATES FEW OR NO CLOUDS BELOW 12,000 FEET WITH NO SIGNIFICANT WEATHER AND/OR OBSTRUCTIONS TO VISIBILITY. NYZ071-072-176-178-NJZ106-104-312200- NEW YORK CITY METRO AREA CITY SKY/WX TMP DP RH WIND PRES REMARKS CENTRAL PARK SUNNY 26 0 32 NW9G21 30.12R WCI 17 LAGUARDIA APRT MOSUNNY 26 3 37 NW22G32 30.10R WCI 12 KENNEDY INTL MOSUNNY 27 0 31 NW18 30.12R WCI 14 NEWARK/LIBERTY SUNNY 26 3 37 NW18G29 30.12R WCI 13 BRNX BOT. GARD N/A N/A N/A N/A W9 30.12R TETERBORO SUNNY 26 0 32 NW13 30.11S WCI 15 $$ NYZ177-179-078>081-312200- LONG ISLAND NEW YORK CITY SKY/WX TMP DP RH WIND PRES REMARKS FARMINGDALE SUNNY 26 -1 31 NW14G21 30.08R WCI 14 ISLIP SUNNY 24 0 35 NW20G29 30.04R WCI 10 SHIRLEY SUNNY 25 1 35 NW20G25 30.05S WCI 11 WESTHAMPTON SUNNY 24 1 36 NW21G32 30.03R WCI 9 MONTAUK POINT N/A 23 3 42 NW18G32 29.98R WCI 9 $$ NYZ052-065-067-312200- HUDSON VALLEY CITY SKY/WX TMP DP RH WIND PRES REMARKS WHITE PLAINS SUNNY 23 -2 33 NW20G32 30.05R WCI 8 NEWBURGH SUNNY 21 1 42 NW23G30 30.09R WCI 5 MONTGOMERY SUNNY 22 1 40 NW22G29 30.09R WCI 6 POUGHKEEPSIE SUNNY 25 -4 28 NW15G25 30.10R WCI 13 ALBANY CLEAR 14 -4 44 W25G37 30.13S WCI -5 $$ NJZ001-105-106-008-010-013-015-019>022-104-312200- NEW JERSEY CITY SKY/WX TMP DP RH WIND PRES REMARKS NEWARK/LIBERTY SUNNY 26 3 37 NW18G29 30.12R WCI 13 TETERBORO SUNNY 26 0 32 NW13 30.11S WCI 15 CALDWELL SUNNY 25 1 35 NW15G22 30.12R WCI 13 MORRISTOWN SUNNY 25 1 36 NW13G20 30.13R WCI 13 SOMERVILLE SUNNY 26 2 35 NW14G21 30.13R WCI 14 SUSSEX SUNNY 23 0 36 VRB6 30.12R WCI 16 ANDOVER N/A 23 0 36 VRB7G18 30.12R WCI 15 TRENTON SUNNY 27 2 34 W13G21 30.16R WCI 16 MILLVILLE SUNNY 28 5 37 W13 30.20R WCI 17 ATLANTIC CITY SUNNY 28 3 34 NW20G25 30.16R WCI 15 WRIGHTSTOWN SUNNY 26 3 36 W14G24 30.14S WCI 15 TOMS RIVER SUNNY 25 5 42 NW22G28 30.14S WCI 10 BELMAR SUNNY 25 1 36 W18G30 30.12R WCI 11 $$ PAZ047>061-062-071-312200- EASTERN PENNSYLVANIA CITY SKY/WX TMP DP RH WIND PRES REMARKS PHILADELPHIA SUNNY 29 4 34 NW14G24 30.20S WCI 18 ALLENTOWN SUNNY 26 5 40 NW9G21 30.16S WCI 17 SCRANTON SUNNY 22 4 46 NW8 30.15F WCI 12 $$ CTZ002-004>006-009-010-012-RIZ004-006-007-MAZ004-011-015-312200- SOUTHERN NEW ENGLAND IN CT CITY SKY/WX TMP DP RH WIND PRES REMARKS BRADLEY INTL CLEAR 20 -5 33 NW12 30.03R WCI 8 HARTFORD CLEAR 20 -5 33 NW13G28 30.05R WCI 7 DANBURY SUNNY 22 -5 30 NW15G23 30.05R WCI 9 WTRBRY/OXFORD SUNNY 19 -8 30 NW21G30 30.01R WCI 3 BRIDGEPORT SUNNY 24 0 35 NW15G23 30.05R WCI 11 MERIDEN CLEAR 21 -5 31 NW18G28 30.04R WCI 6 NEW HAVEN SUNNY 23 -4 30 NW21G31 30.04R WCI 8 CHESTER FAIR 21 -6 30 NW16G32 29.99R WCI 7 GROTON CLEAR 20 -3 36 NW20G28 29.98R WCI 4 WILLIMANTIC CLEAR 19 -5 34 NW10G22 30.00R WCI 7 IN RI CITY SKY/WX TMP DP RH WIND PRES REMARKS PROVIDENCE PTCLDY 23 -4 30 NW15G28 29.92R WCI 10 BLOCK ISLAND CLEAR 21 0 39 NW16G30 29.93R WCI 7 WESTERLY CLEAR 21 -6 30 NW15G26 29.96R WCI 8 IN MA CITY SKY/WX TMP DP RH WIND PRES REMARKS BOSTON PTCLDY 21 -6 30 NW26G40 29.88R WCI 4 WORCESTER CLEAR 15 -4 42 NW31G43 29.87R BLWGSNOWWCI -6 WESTFIELD CLEAR 18 -5 36 NW20G26 30.03R WCI 2 PROVINCETOWN CLEAR 25 5 42 NW29G41 29.83R WCI 8 NANTUCKET CLEAR 25 2 37 NW20G33 29.81R WCI 11 $$ ANZ330-335-338-340-345-350-353-355-312200- COASTAL MARINE OBSERVATIONS STATION/POSITION TIME SKY/WX TEMP WIND PRES VSBY WAVE AIR SEA DIR/SP/G HT/PER (UTC) (F) (DEG/KT/KT) (MB) (MI) (FT/S) NY HARB ENTRANCE 2100 28 40 300/ 23/ 27 1018.6 4/ 5 4S FIRE IS NOT AVBL 20S FIRE ISLAND 2000 41 1018.2 7/ 7 23SW MTP 2100 N/A 8/ 5 HUDSON CANYON NOT AVBL EXECUTION ROCKS 2100 26 33 320/ 16/ 23 N/A WESTERN LI SOUND 2100 26 300/ 19/ 27 N/A 2/ 3 CENTRAL LI SOUND 2000 24 34 310/ 25/ 35 N/A 5/ 5 EASTERN LI SOUND NOT AVBL ROBBINS REEF 2100 25 310/ 24/ 28 1018.3 $$ >>>>>>>>>>>>>>>>>>>>>>>>>>>> KEY <<<<<<<<<<<<<<<<<<<<<<<<<<< > < > SKY/WX - SKY CONDITION/PRESENT WEATHER < > TMP - TEMPERATURE IN FAHRENHEIT < > DP - DEWPOINT IN FAHRENHEIT < > RH - RELATIVE HUMIDITY IN PERCENT < > WIND - DIRECTION AND SPEED IN MPH < > PRES - MEAN SEA LEVEL PRESSURE IN INCHES OF HG < > WCI - WIND CHILL INDEX < > VSB - VISIBILITY IN MILES < > HX - HEAT INDEX < > TC - TEMPERATURE IN CELSIUS < > VRB - VARIABLE WIND DIRECTION < > < >>>>>>>>>>>>>>>>>>>>>>>>>>>> KEY <<<<<<<<<<<<<<<<<<<<<<<<<<<

USA.gov is the U.S. government's official web portal to all federal, state and local government web resources and services.